Baudette, MN

5:38 AM CDT on October 18, 2017 (GMT -0500)
Baudette International

Weather History for KBDE - January, 2014

Change the Weather History Date:

Thursday, January 9, 2014

  Actual Average Record
Temperature  
Mean Temperature 6 °F -  
Max Temperature 23 °F 13 °F 43 °F (1958)
Min Temperature -11 °F -10 °F -38 °F (1993)
Degree Days  
Heating Degree Days 59    
Moisture  
Dew Point 5 °F    
Average Humidity 74    
Maximum Humidity 88    
Minimum Humidity 66    
Precipitation  
Precipitation 0.00 in - - ()
Sea Level Pressure  
Sea Level Pressure 29.90 in    
Wind  
Wind Speed 10 mph (South)    
Max Wind Speed 16 mph    
Max Gust Speed 24 mph    
Visibility 10 miles    
Events      
Averages and records for this station are not official NWS values.
T = Trace of Precipitation, MM = Missing Value Source: NWS Daily Summary

Daily Weather History Graph

Daily Weather History Graph

Search for Another Location

Airport or City:

Trip Planner

Search our weather history database for the weather conditions in past years. The results will help you decide how hot, cold, wet, or windy it might be!

Date:

Astronomy

Jan. 09, 2014 Rise Set
Actual Time 8:09 AM CST 4:42 PM CST
Civil Twilight 7:33 AM CST 5:18 PM CST
Nautical Twilight 6:53 AM CST 5:58 PM CST
Astronomical Twilight 6:15 AM CST 6:36 PM CST
Moon 12:20 PM CST (1/9) 2:05 AM CST (1/9)
Length of Visible Light 9h 45m
Length of Day
8h 32m
Waxing Gibbous, 66% of the Moon is Illuminated
Jan 9
Waxing Gibbous
Jan 15
Full
Jan 23
Last Quarter
Jan 30
New
Feb 6
First Quarter

Hourly Weather History & Observations

Time (CST) Temp. Windchill Dew Point Humidity Pressure Visibility Wind Dir Wind Speed Gust Speed Precip Events Conditions
12:53 AM -11.0 °F -26.2 °F -17.0 °F 75% 30.26 in 10.0 mi South 6.9 mph - N/A   Mostly Cloudy
1:53 AM -7.1 °F -21.4 °F -13.0 °F 75% 30.20 in 10.0 mi South 6.9 mph - N/A   Overcast
2:53 AM -2.9 °F -17.7 °F -9.9 °F 72% 30.16 in 10.0 mi South 8.1 mph - N/A   Overcast
3:53 AM 1.9 °F -13.8 °F -7.1 °F 66% 30.11 in 10.0 mi South 10.4 mph - N/A   Overcast
4:53 AM 3.9 °F -13.0 °F -4.0 °F 70% 30.07 in 9.0 mi South 12.7 mph 20.7 mph 0.00 in   Overcast
5:53 AM 7.0 °F -8.3 °F -2.0 °F 67% 30.03 in 10.0 mi South 11.5 mph 19.6 mph N/A   Overcast
6:10 AM 7.0 °F -11.0 °F -0.9 °F 70% 29.92 in 10.0 mi South 16.1 mph 21.9 mph N/A   Overcast
6:37 AM 8.1 °F -9.6 °F -0.0 °F 70% 29.90 in 10.0 mi South 16.1 mph 21.9 mph N/A   Overcast
6:53 AM 8.1 °F -9.0 °F 1.0 °F 73% 29.98 in 10.0 mi South 15.0 mph 21.9 mph N/A   Overcast
7:53 AM 9.0 °F -7.9 °F 1.9 °F 73% 29.95 in 10.0 mi South 15.0 mph 24.2 mph N/A   Overcast
8:53 AM 10.9 °F -4.1 °F 3.9 °F 73% 29.96 in 10.0 mi South 12.7 mph 20.7 mph N/A   Overcast
9:32 AM 10.9 °F -3.4 °F 5.0 °F 77% 29.84 in 10.0 mi South 11.5 mph 19.6 mph N/A   Overcast
9:53 AM 12.0 °F -3.4 °F 6.1 °F 77% 29.94 in 10.0 mi South 13.8 mph 21.9 mph N/A   Overcast
10:53 AM 15.1 °F 1.8 °F 8.1 °F 74% 29.92 in 10.0 mi South 11.5 mph - N/A   Overcast
11:53 AM 17.1 °F 5.0 °F 10.0 °F 74% 29.88 in 10.0 mi South 10.4 mph - N/A   Overcast
12:53 PM 19.9 °F 7.3 °F 12.0 °F 71% 29.84 in 10.0 mi South 12.7 mph - N/A   Overcast
1:53 PM 21.9 °F 8.7 °F 14.0 °F 72% 29.81 in 10.0 mi South 15.0 mph - N/A   Overcast
2:53 PM 23.0 °F 11.1 °F 14.0 °F 68% 29.80 in 10.0 mi South 12.7 mph - N/A   Mostly Cloudy
3:53 PM 23.0 °F 11.1 °F 15.1 °F 72% 29.79 in 10.0 mi South 12.7 mph - N/A   Scattered Clouds
5:53 PM 19.9 °F 6.7 °F 12.0 °F 71% 29.81 in 10.0 mi South 13.8 mph - N/A   Clear
6:19 PM 19.9 °F 8.6 °F 12.0 °F 71% 29.73 in 10.0 mi South 10.4 mph - N/A   Mostly Cloudy
6:53 PM 19.0 °F 8.2 °F 10.9 °F 71% 29.79 in 10.0 mi South 9.2 mph - N/A   Mostly Cloudy
7:53 PM 18.0 °F 9.8 °F 10.9 °F 74% 29.78 in 10.0 mi South 5.8 mph - N/A   Overcast
8:45 PM 16.0 °F 5.3 °F 10.0 °F 77% 29.69 in 10.0 mi SSE 8.1 mph - N/A   Scattered Clouds
8:53 PM 15.1 °F 7.7 °F 10.0 °F 80% 29.77 in 10.0 mi SSE 4.6 mph - N/A   Partly Cloudy
9:53 PM 14.0 °F 6.5 °F 10.0 °F 84% 29.76 in 10.0 mi SSE 4.6 mph - N/A   Clear
10:53 PM 12.0 °F 4.1 °F 8.1 °F 84% 29.75 in 10.0 mi SE 4.6 mph - N/A   Clear
11:53 PM 12.0 °F 2.7 °F 9.0 °F 88% 29.73 in 9.0 mi SE 5.8 mph - N/A   Partly Cloudy